COSMOS 624

Satellite information

Favourite Embed

Satellite Type and Status

PAYLOADIN ORBIT

Key statistics

Satellite COSMOS 624 at a glance.

Uptime

18945

Days in orbit

Revolutions

≈ 12.6

Per day

Orbit

LEO

Low Earth Orbit

Inclination

74.0

Latest

Satellite identification and parameters

Extended collection of information and parameters for COSMOS 624.

Object identification

Identified? True

Debris? False

Object name: COSMOS 624

International designator: 1973-104H

Object number (NORAD): 6992

Object ID (CCSDS): 6992

Country: COMMONWEALTH OF INDEPENDENT STATES (CIS)

Current information (Y/N): Y

RCS size: MEDIUM

Orbital parameters

Period: 114.169 minutes

Inclination: 74.0269 deg

SMA: 7795.779 km

Apoapsis: 1484.786 km

Periapsis: 1350.502 km

RAAN: 97.4536 deg

Eccentricy: 0.0086126

Argument of periapsis: 191.4855 deg

Mean anomaly: 287.0621 deg

Mean motion: 12.61285677 rev/day

Mean motion (dot): 0.00000008 rev/day2

B* drag term: 0.00013403 1/REarth

Two-line elements (TLE)

Creation date: Oct. 31, 2025, 10:56 p.m.

Reference frame: TEME

Reference center: EARTH

Epoch: Oct. 31, 2025, 7:24 p.m. UTC

TLE line 0: 0 COSMOS 624

TLE line 1: 1 6992U 73104H 25304.80839985 .00000008 00000-0 13403-3 0 9997

TLE line 2: 2 6992 74.0269 97.4536 0086126 191.4855 287.0621 12.61285677388095

Live tracking on map

Real-time ground track for satellite COSMOS 624.

In-orbit conjunctions

There are no conjunctions computed for COSMOS 624, at the moment. Check back to stay up to date, as we update our databases every day.

Go to all conjunctions

Associated space launch

Military communications satellites

COSMOS 624 was lifted into orbit during the mission ‘Kosmos-3M | Strela-1M 57-64’, on board a Kosmos-3M space rocket.

The launch took place on Dec. 19, 1973, 9:43 a.m. from 132/2.

For more information about the launch, click the button.

Launch to space Kosmos-3M | Strela-1M 57-64
Kosmos-3M | Strela-1M 57-64

Agency: N/A

Status: Launch Successful

Launch date: Dec. 19, 1973, 9:43 a.m. UTC

Rocket: Kosmos-3M

Launch pad: 132/2

Location: Plesetsk Cosmodrome, Russian Federation

...

Latest news about this satellite

There are no fresh news available about this satellite. Check back as we update our databases every day.


Newsletter sign-up

Weekly statistics, charts and insights to help you stay on top of the space industry.